[[{"header":{"parameterUnit":"m.s-1","parameterCategory":1,"la1":30.2991,"la2":30.254,"lo1":-89.0895,"lo2":-89.0444,"dy":0.0017,"dx":0.0017,"nx":28,"ny":28,"refTime":"2024-04-10T09:00:00:Z","depth":0,"parameterNumber":2,"parameterNumberName":"U-component_of_WINDS"},"data":[0,0,0,0,0,0,0,0,0,0,0,0,0,0,0,0,0,0,0,0,0,0,0,0,0,0,0,0,0,0,0,0,0,0,0,0,0,0,0,0,0,0,0,0,0,0,0,0,0,0,0,0,0,0,0,0,0,0,10.2199,10.2199,0,10.2287,10.2288,10.2289,10.2124,10.2119,10.2113,10.2108,10.2195,10.2202,10.221,0,0,0,0,0,0,0,0,0,0,0,0,0,10.1883,10.189,10.2198,10.22,10.2201,10.2287,10.2288,10.2289,10.2125,10.2118,10.2112,10.2105,10.2193,10.2201,10.221,0,0,0,0,0,0,0,0,0,0,0,0,0,10.2001,10.1892,10.2198,10.2129,10.2124,10.2286,10.2288,10.2289,10.2126,10.2118,10.211,10.2102,10.219,10.2201,10.2212,10.2444,0,0,10.2246,10.225,0,0,0,0,0,0,0,0,10.1994,10.2012,10.2138,10.2134,10.2129,10.2186,10.2208,10.2341,10.2129,10.2125,10.2108,10.2098,10.2199,10.2208,10.2243,10.2448,10.2452,10.2247,10.2253,10.2258,10.2261,0,0,0,0,0,0,0,10.1986,10.2008,10.2233,10.214,10.2134,10.2092,10.21,10.2233,10.2207,10.2125,10.2113,10.2126,10.2194,10.2233,10.2244,10.2453,10.2246,10.2256,10.2263,10.2267,10.2851,10.286,0,0,0,0,0,0,10.1987,10.2002,10.223,10.2236,10.204,10.2105,10.2113,10.2176,10.2205,10.2202,10.2133,10.2118,10.2218,10.2231,10.2246,10.2518,10.2258,10.2268,10.2275,10.2842,10.2853,10.2863,0,0,0,0,0,0,10.1981,10.2009,10.2227,10.2116,10.214,10.2119,10.2191,10.2182,10.222,10.2211,10.2205,10.2177,10.2212,10.2231,10.2396,10.2519,10.2273,10.2284,10.2832,10.2846,10.2858,10.3065,0,0,0,0,0,0,10.1973,10.2008,10.2097,10.2119,10.2147,10.2377,10.2198,10.219,10.224,10.2221,10.2251,10.2248,10.2207,10.238,10.2407,10.2529,10.2292,10.2821,10.2838,10.2854,10.3047,10.3084,10.3115,0,0,0,0,0,10.1962,10.2152,10.2103,10.2131,10.2258,10.2384,10.24,10.235,10.2251,10.2339,10.2333,10.2247,10.2502,10.2399,10.2427,10.2555,10.2813,10.2833,10.2852,10.3032,10.3077,10.3115,0,0,0,0,0,0,10.2144,10.2154,10.2099,10.2302,10.2344,10.2356,10.2466,10.2399,10.2469,10.2448,10.2382,10.239,10.2568,10.2578,10.2463,10.278,10.264,10.2667,10.2767,10.2809,10.2843,10.2835,10.2301,0,0,0,0,0,10.2208,10.2311,10.2313,10.2492,10.2516,10.2489,10.2542,10.2499,10.2539,10.2556,10.2562,10.2603,10.2691,10.2751,10.2833,10.3049,10.3051,10.3151,10.3185,10.3213,10.3236,10.3347,10.3391,10.2928,10.2928,10.2927,0,0,10.2341,10.2359,10.2428,10.2529,10.2557,10.2663,10.2504,10.2624,10.2701,10.2573,10.2729,10.2736,10.2777,10.2968,10.3052,10.2982,10.3364,10.3238,10.3261,10.3268,10.3372,10.3416,10.3455,10.2941,10.2939,10.2937,0,0,10.2636,10.2662,10.2812,10.2843,10.2887,10.2867,10.2904,10.2927,10.2926,10.3082,10.2987,10.3078,10.3234,10.3266,10.3303,10.3611,10.3533,10.364,10.3816,10.3926,10.3962,10.3994,10.4101,10.414,10.3663,10.3663,10.3664,0,10.2795,10.2953,10.2898,10.3024,10.307,10.2961,10.3111,10.3143,10.3212,10.3245,10.3166,10.3357,10.3377,10.3573,10.3648,10.3683,10.372,10.3634,10.3962,10.3993,10.4022,10.4123,10.4164,10.3676,10.3674,10.3673,10.3672,0,10.3144,10.3255,10.3371,10.344,10.35,10.3638,10.3602,10.3669,10.3622,10.361,10.3769,10.379,10.3872,10.3916,10.3871,10.4105,10.406,10.3973,10.383,10.408,10.4173,10.4211,10.3694,10.3689,10.3685,10.3682,0,0,10.3555,10.3592,10.3636,10.3664,10.3705,10.3788,10.3921,10.4002,10.4059,10.4111,10.4217,10.4352,10.4271,10.4313,10.4271,10.4368,10.4606,10.4268,10.4268,10.4327,10.4862,10.4924,10.497,10.4556,10.4564,10.4569,10.4857,0,10.3846,10.4074,10.4028,10.4251,10.4351,10.4249,10.4363,10.44,10.4392,10.4475,10.4466,10.4561,10.4449,10.4473,10.4565,10.4558,10.4712,10.4537,10.4652,10.4657,10.4642,10.5019,10.5086,10.5357,10.4893,10.49,10.4904,0,10.4215,10.428,10.4514,10.4536,10.4576,10.468,10.475,10.4832,10.487,10.4857,10.4905,10.4844,10.4973,10.4831,10.5006,10.4888,10.4933,10.4937,10.4946,10.4952,10.4793,10.5032,10.5442,10.5481,10.4962,10.4957,10.4953,0,10.4488,10.4634,10.4791,10.482,10.4851,10.4926,10.4942,10.4973,10.5024,10.5085,10.5117,10.5193,10.5234,10.5293,10.5253,10.5154,10.5434,10.5289,10.5424,10.5425,10.5485,10.5481,10.5904,10.552,10.552,10.5519,10.5518,0,10.4815,10.4961,10.4913,10.501,10.517,10.5115,10.5274,10.5278,10.5306,10.54,10.5317,10.5406,10.535,10.5435,10.5405,10.5552,10.5572,10.5563,10.5553,10.5569,10.557,10.5594,10.5573,10.553,10.5527,10.5525,10.5523,0,10.5145,10.512,10.5284,10.53,10.5308,10.5424,10.5437,10.5526,10.5513,10.5633,10.5658,10.5636,10.5731,10.5699,10.5801,10.578,10.5967,10.5934,10.5954,10.5944,10.6079,10.6066,10.6531,10.6587,10.6171,10.6175,10.6178,0,10.5354,10.5463,10.5492,10.5549,10.5572,10.5666,10.5718,10.5669,10.5726,10.5777,10.5859,10.5948,10.6015,10.6171,10.6164,10.6241,10.6206,10.6364,10.6217,10.6229,10.6204,10.6197,10.6205,10.6392,10.6397,10.6401,10.6404,0,10.5726,10.5708,10.5787,10.5863,10.5927,10.5983,10.6032,10.6084,10.6037,10.6105,10.6202,10.6254,10.6358,10.6445,10.6514,10.6528,10.6458,10.6451,10.6485,10.6501,10.6507,10.6501,10.603,10.644,10.6436,10.6434,10.6432,10.643,10.5999,10.6091,10.6125,10.6215,10.6247,10.6294,10.6377,10.6375,10.6455,10.6536,10.6502,10.6613,10.6646,10.6732,10.6756,10.684,10.6779,10.683,10.6842,10.6854,10.687,10.6497,10.6853,10.6852,10.6851,10.685,10.6849,0,10.6364,10.6381,10.6465,10.6536,10.6606,10.6536,10.6586,10.6649,10.6748,10.6786,10.6854,10.6964,10.7048,10.7047,10.7125,10.7192,10.7161,10.7214,10.7206,10.721,10.6922,10.6883,10.7237,10.7237,10.7237,10.7237,10.7237,10.7237,10.6562,10.6713,10.6699,10.6863,10.6878,10.6987,10.7021,10.7063,10.7092,10.7219,10.7289,10.7288,10.731,10.7388,10.7461,10.7459,10.7489,10.7553,10.7539,10.7269,10.7231,10.7194,10.7156,10.7561,10.7562,10.7818,10.782,10.7822]},{"header":{"parameterUnit":"m.s-1","parameterCategory":1,"la1":30.2991,"la2":30.254,"lo1":-89.0895,"lo2":-89.0444,"dy":0.0017,"dx":0.0017,"nx":28,"ny":28,"refTime":"2024-04-10T09:00:00:Z","depth":0,"parameterNumber":3,"parameterNumberName":"V-component_of_WINDS"},"data":[0,0,0,0,0,0,0,0,0,0,0,0,0,0,0,0,0,0,0,0,0,0,0,0,0,0,0,0,0,0,0,0,0,0,0,0,0,0,0,0,0,0,0,0,0,0,0,0,0,0,0,0,0,0,0,0,0,0,3.6572,3.6575,0,3.6802,3.6804,3.6807,3.6879,3.6878,3.6877,3.6876,3.7113,3.7121,3.7128,0,0,0,0,0,0,0,0,0,0,0,0,0,3.6196,3.6202,3.6572,3.6575,3.6578,3.6801,3.6805,3.6808,3.688,3.6878,3.6877,3.6876,3.7111,3.712,3.7128,0,0,0,0,0,0,0,0,0,0,0,0,0,3.6386,3.6205,3.6571,3.664,3.6649,3.6801,3.6805,3.6809,3.688,3.6878,3.6877,3.6875,3.7108,3.7119,3.713,3.723,0,0,3.7163,3.7168,0,0,0,0,0,0,0,0,3.6375,3.64,3.6627,3.6636,3.6646,3.681,3.6759,3.695,3.688,3.6792,3.6876,3.6874,3.7014,3.7033,3.7079,3.7241,3.7251,3.7164,3.7171,3.7176,3.7179,0,0,0,0,0,0,0,3.6362,3.639,3.6663,3.6631,3.6642,3.666,3.6685,3.6796,3.691,3.68,3.6806,3.6832,3.7019,3.7069,3.7085,3.7255,3.7164,3.7174,3.718,3.7185,3.7509,3.7511,0,0,0,0,0,0,3.6337,3.6379,3.6656,3.667,3.6503,3.6668,3.6696,3.6759,3.6908,3.693,3.6833,3.6834,3.7051,3.7073,3.7094,3.7221,3.7175,3.7186,3.7192,3.7507,3.751,3.7512,0,0,0,0,0,0,3.6328,3.6361,3.6646,3.6526,3.6564,3.6676,3.6746,3.6765,3.6815,3.6933,3.6954,3.6863,3.705,3.7079,3.7195,3.723,3.7191,3.7201,3.7505,3.7508,3.7511,3.7475,0,0,0,0,0,0,3.6317,3.6357,3.6397,3.6526,3.657,3.6743,3.6748,3.677,3.6833,3.6837,3.6967,3.6987,3.7051,3.7178,3.7206,3.7245,3.7209,3.7502,3.7506,3.751,3.7474,3.7477,3.7479,0,0,0,0,0,3.6304,3.6378,3.6398,3.6431,3.6621,3.6745,3.677,3.6842,3.6836,3.6876,3.6952,3.6983,3.7221,3.719,3.7222,3.7264,3.75,3.7505,3.751,3.7473,3.7476,3.7479,0,0,0,0,0,0,3.6251,3.6396,3.642,3.6539,3.6629,3.6757,3.6811,3.6844,3.6938,3.6938,3.7023,3.7052,3.7162,3.7225,3.7187,3.7368,3.7362,3.7373,3.7323,3.7328,3.733,3.7313,3.7218,0,0,0,0,0,3.6252,3.6341,3.6464,3.6556,3.66,3.6697,3.6754,3.6801,3.6898,3.6937,3.7022,3.7115,3.7211,3.7273,3.7368,3.7483,3.7512,3.7528,3.753,3.7532,3.7541,3.7606,3.7614,3.7527,3.7527,3.7527,0,0,3.6258,3.6348,3.6399,3.6548,3.6623,3.6713,3.6729,3.6824,3.6891,3.6952,3.7067,3.7132,3.7242,3.7358,3.7413,3.7414,3.7571,3.7538,3.7538,3.7547,3.7611,3.7619,3.7626,3.753,3.753,3.7529,0,0,3.6313,3.6391,3.6476,3.6551,3.6664,3.6728,3.6748,3.6872,3.6917,3.7034,3.7081,3.7162,3.7326,3.7402,3.7462,3.7544,3.7576,3.7573,3.7587,3.7649,3.7656,3.7662,3.7691,3.7701,3.7581,3.7581,3.7581,0,3.6306,3.6443,3.6516,3.6608,3.6672,3.6729,3.6817,3.6886,3.7025,3.7067,3.7065,3.7271,3.7349,3.7483,3.7503,3.755,3.7576,3.7559,3.7649,3.7656,3.7663,3.7692,3.7703,3.758,3.758,3.758,3.758,0,3.6428,3.6521,3.6577,3.6708,3.6778,3.6867,3.6954,3.7016,3.7056,3.712,3.7238,3.7333,3.7448,3.7483,3.7524,3.7623,3.762,3.7632,3.7628,3.7669,3.7697,3.7709,3.7578,3.7578,3.7579,3.7579,0,0,3.6458,3.6627,3.6647,3.6706,3.6835,3.6909,3.7,3.7112,3.7163,3.7256,3.7335,3.7471,3.7483,3.7551,3.7601,3.7655,3.7713,3.7661,3.7665,3.7668,3.7828,3.7817,3.7829,3.7735,3.7737,3.7739,3.7818,0,3.653,3.6695,3.6763,3.6896,3.6983,3.7038,3.7118,3.7205,3.7267,3.735,3.7418,3.7513,3.7522,3.7563,3.7619,3.7694,3.7747,3.7689,3.7809,3.7812,3.778,3.7844,3.7834,3.7905,3.783,3.7832,3.7833,0,3.6637,3.6729,3.6871,3.6987,3.7027,3.7097,3.7204,3.7282,3.7382,3.7423,3.7498,3.7544,3.7642,3.763,3.7766,3.7725,3.7778,3.7822,3.7826,3.784,3.7825,3.786,3.7929,3.7939,3.7852,3.785,3.7849,0,3.6644,3.6804,3.691,3.6959,3.7098,3.7146,3.7206,3.7304,3.7366,3.746,3.7501,3.7604,3.7661,3.774,3.7813,3.7798,3.7942,3.7936,3.7979,3.7977,3.8007,3.8004,3.8085,3.804,3.804,3.804,3.804,0,3.6718,3.6802,3.6915,3.6979,3.7075,3.7152,3.7245,3.7309,3.7396,3.7474,3.7528,3.76,3.7692,3.7776,3.7833,3.7936,3.7962,3.7998,3.8012,3.7993,3.7988,3.8029,3.8026,3.8043,3.8042,3.8041,3.8041,0,3.6743,3.6821,3.694,3.7061,3.7093,3.7158,3.7262,3.7327,3.739,3.7488,3.7516,3.7616,3.7717,3.7797,3.793,3.7969,3.8077,3.8093,3.8043,3.805,3.8088,3.8083,3.8198,3.8217,3.8159,3.8159,3.8159,0,3.6785,3.6851,3.6978,3.7034,3.7093,3.7183,3.7246,3.7324,3.7387,3.7505,3.7556,3.766,3.7749,3.7908,3.7992,3.8094,3.8113,3.8146,3.8128,3.8107,3.8113,3.8108,3.8115,3.8148,3.8148,3.8148,3.8148,0,3.685,3.6886,3.6975,3.7077,3.715,3.7235,3.7321,3.7363,3.7457,3.7525,3.7629,3.7697,3.7832,3.7935,3.8045,3.8107,3.8143,3.8153,3.8168,3.815,3.8118,3.8135,3.8048,3.815,3.815,3.815,3.815,3.815,3.6886,3.6946,3.7045,3.7142,3.7214,3.7293,3.7359,3.743,3.7518,3.7633,3.7673,3.778,3.7877,3.8028,3.8091,3.8175,3.8178,3.82,3.8206,3.821,3.8207,3.8104,3.8196,3.8196,3.8196,3.8196,3.8196,0,3.6954,3.702,3.7108,3.7226,3.7302,3.7328,3.7424,3.7486,3.7578,3.7666,3.7751,3.7869,3.7969,3.8061,3.8165,3.8215,3.8234,3.824,3.8237,3.8251,3.8199,3.8176,3.8223,3.8222,3.8222,3.8222,3.8222,3.8222,3.6999,3.7103,3.7149,3.7289,3.7355,3.7459,3.7511,3.7584,3.7654,3.7783,3.7866,3.7925,3.8014,3.8125,3.8218,3.8242,3.8278,3.8279,3.8308,3.8258,3.8255,3.8251,3.8229,3.8287,3.8287,3.8353,3.8353,3.8354]}]]